QPF
0.00 0.00 0.01 0.02 0.01 0.01 0.00 0.00 0.00 0.00 0.00 0.00 0.00 0.00 0.00 0.00 0.00 0.00 0.00 0.00 0.00 0.00 0.00 0.01 0.01 0.01 0.01 0.01 0.01 0.02 0.01 0.01 0.01 0.01 0.01 0.01 0.02 0.02 0.02 0.03 0.04 0.03 0.02 0.02 0.01 0.02 0.01 0.01 0.01
0.00 0.01 0.02 0.02 0.01 0.00 0.00 0.00 0.00 0.00 0.00 0.00 0.00 0.00 0.00 0.00 0.00 0.00 0.00 0.00 0.00 0.00 0.00 0.01 0.01 0.01 0.01 0.01 0.01 0.01 0.01 0.02 0.02 0.02 0.02 0.01 0.02 0.03 0.03 0.03 0.04 0.05 0.04 0.02 0.01 0.01 0.01 0.01 0.01
0.01 0.01 0.02 0.01 0.01 0.00 0.00 0.00 0.00 0.00 0.00 0.00 0.00 0.00 0.00 0.00 0.00 0.00 0.00 0.00 0.00 0.00 0.00 0.01 0.02 0.02 0.01 0.01 0.01 0.01 0.01 0.02 0.02 0.02 0.02 0.02 0.02 0.02 0.03 0.05 0.06 0.07 0.06 0.03 0.02 0.01 0.01 0.01 0.01
0.01 0.01 0.01 0.01 0.00 0.00 0.00 0.00 0.00 0.00 0.00 0.00 0.00 0.00 0.00 0.00 0.00 0.00 0.00 0.00 0.00 0.00 0.00 0.01 0.01 0.01 0.01 0.01 0.01 0.01 0.01 0.02 0.02 0.03 0.03 0.03 0.02 0.03 0.04 0.05 0.06 0.11 0.08 0.05 0.02 0.01 0.02 0.01 0.01
0.02 0.02 0.01 0.00 0.00 0.00 0.00 0.00 0.00 0.00 0.00 0.00 0.00 0.00 0.00 0.00 0.00 0.00 0.01 0.01 0.01 0.01 0.00 0.01 0.01 0.01 0.01 0.01 0.01 0.01 0.01 0.01 0.02 0.03 0.03 0.03 0.03 0.03 0.04 0.05 0.06 0.10 0.08 0.04 0.02 0.01 0.01 0.02 0.01
0.01 0.01 0.01 0.00 0.00 0.00 0.00 0.00 0.00 0.00 0.00 0.00 0.00 0.00 0.00 0.00 0.00 0.00 0.00 0.01 0.01 0.01 0.01 0.01 0.01 0.01 0.01 0.01 0.01 0.01 0.01 0.01 0.01 0.02 0.03 0.04 0.04 0.04 0.04 0.04 0.04 0.06 0.07 0.05 0.03 0.02 0.01 0.02 0.01
0.01 0.01 0.00 0.00 0.00 0.00 0.00 0.00 0.00 0.00 0.00 0.00 0.00 0.00 0.00 0.00 0.00 0.00 0.00 0.01 0.01 0.01 0.01 0.01 0.02 0.01 0.01 0.01 0.01 0.01 0.01 0.01 0.01 0.01 0.01 0.02 0.03 0.04 0.04 0.05 0.04 0.05 0.06 0.05 0.03 0.02 0.02 0.02 0.01
0.01 0.01 0.00 0.00 0.00 0.00 0.00 0.00 0.00 0.00 0.00 0.00 0.00 0.00 0.00 0.00 0.00 0.00 0.01 0.01 0.02 0.02 0.02 0.02 0.02 0.02 0.01 0.00 0.00 0.01 0.01 0.00 0.00 0.00 0.00 0.01 0.03 0.04 0.04 0.04 0.04 0.05 0.05 0.04 0.03 0.02 0.02 0.03 0.02
0.02 0.02 0.01 0.00 0.00 0.00 0.00 0.00 0.00 0.00 0.00 0.00 0.00 0.00 0.00 0.00 0.00 0.01 0.01 0.01 0.01 0.02 0.02 0.02 0.02 0.02 0.01 0.01 0.00 0.00 0.01 0.00 0.00 0.00 0.00 0.00 0.01 0.03 0.04 0.05 0.04 0.04 0.04 0.03 0.03 0.02 0.03 0.03 0.02
0.01 0.01 0.00 0.00 0.00 0.00 0.00 0.00 0.00 0.00 0.00 0.00 0.00 0.00 0.00 0.01 0.00 0.01 0.01 0.01 0.01 0.02 0.02 0.03 0.03 0.02 0.02 0.01 0.01 0.00 0.01 0.00 0.00 0.00 0.00 0.00 0.01 0.02 0.03 0.04 0.04 0.04 0.05 0.05 0.05 0.04 0.02 0.02 0.01
0.01 0.01 0.01 0.01 0.01 0.01 0.01 0.00 0.00 0.00 0.00 0.00 0.00 0.00 0.01 0.01 0.01 0.01 0.01 0.01 0.01 0.02 0.02 0.03 0.03 0.03 0.02 0.02 0.01 0.00 0.00 0.01 0.01 0.01 0.01 0.01 0.01 0.02 0.02 0.02 0.03 0.04 0.05 0.04 0.04 0.03 0.02 0.01 0.01
0.01 0.01 0.01 0.02 0.02 0.02 0.02 0.01 0.01 0.00 0.01 0.00 0.01 0.01 0.01 0.01 0.01 0.01 0.01 0.01 0.02 0.02 0.02 0.03 0.03 0.03 0.03 0.03 0.01 0.00 0.00 0.00 0.01 0.01 0.01 0.01 0.01 0.01 0.02 0.02 0.03 0.04 0.05 0.06 0.04 0.03 0.02 0.01 0.01
0.01 0.01 0.01 0.02 0.02 0.03 0.03 0.03 0.01 0.01 0.00 0.00 0.01 0.01 0.01 0.02 0.02 0.01 0.01 0.02 0.02 0.02 0.02 0.03 0.03 0.03 0.04 0.04 0.03 0.01 0.01 0.01 0.01 0.01 0.01 0.01 0.01 0.01 0.01 0.01 0.02 0.03 0.04 0.06 0.06 0.04 0.04 0.03 0.02
0.01 0.01 0.01 0.01 0.01 0.01 0.03 0.04 0.02 0.01 0.01 0.01 0.01 0.01 0.01 0.01 0.02 0.02 0.02 0.01 0.02 0.02 0.02 0.03 0.04 0.04 0.04 0.04 0.03 0.02 0.01 0.01 0.01 0.01 0.01 0.01 0.01 0.01 0.01 0.01 0.02 0.03 0.04 0.05 0.06 0.05 0.03 0.03 0.03
0.00 0.01 0.01 0.01 0.01 0.01 0.02 0.03 0.03 0.02 0.01 0.01 0.01 0.01 0.01 0.01 0.01 0.01 0.02 0.02 0.02 0.02 0.02 0.04 0.05 0.06 0.05 0.06 0.05 0.03 0.02 0.02 0.01 0.01 0.02 0.02 0.02 0.01 0.01 0.02 0.03 0.06 0.08 0.08 0.07 0.06 0.05 0.04 0.04
0.00 0.00 0.00 0.01 0.01 0.01 0.02 0.02 0.02 0.02 0.02 0.01 0.01 0.01 0.01 0.01 0.01 0.02 0.02 0.02 0.02 0.03 0.03 0.04 0.06 0.11 0.12 0.10 0.09 0.05 0.02 0.01 0.01 0.01 0.02 0.02 0.02 0.02 0.02 0.01 0.02 0.05 0.08 0.09 0.10 0.09 0.09 0.08 0.05
0.01 0.01 0.00 0.00 0.00 0.01 0.02 0.03 0.01 0.01 0.02 0.01 0.01 0.01 0.01 0.01 0.02 0.02 0.02 0.03 0.03 0.03 0.03 0.04 0.07 0.12 0.16 0.14 0.12 0.10 0.05 0.02 0.02 0.02 0.01 0.02 0.02 0.02 0.02 0.01 0.02 0.02 0.05 0.08 0.10 0.11 0.10 0.10 0.08
0.02 0.01 0.00 0.00 0.00 0.00 0.01 0.02 0.01 0.01 0.01 0.01 0.01 0.01 0.01 0.01 0.01 0.01 0.01 0.03 0.04 0.05 0.04 0.05 0.07 0.11 0.16 0.17 0.15 0.13 0.09 0.05 0.02 0.02 0.02 0.01 0.01 0.02 0.02 0.02 0.01 0.02 0.03 0.08 0.09 0.10 0.09 0.09 0.08
0.01 0.01 0.01 0.00 0.00 0.00 0.00 0.01 0.01 0.01 0.00 0.01 0.00 0.00 0.00 0.01 0.01 0.01 0.01 0.02 0.04 0.05 0.05 0.05 0.07 0.09 0.12 0.15 0.15 0.13 0.10 0.08 0.04 0.02 0.01 0.01 0.01 0.02 0.02 0.02 0.02 0.02 0.03 0.06 0.08 0.08 0.07 0.07 0.07
0.01 0.01 0.01 0.01 0.01 0.00 0.01 0.00 0.01 0.02 0.01 0.00 0.00 0.00 0.00 0.01 0.02 0.02 0.01 0.01 0.03 0.04 0.05 0.05 0.06 0.08 0.09 0.11 0.11 0.11 0.09 0.07 0.06 0.03 0.01 0.01 0.01 0.01 0.02 0.02 0.01 0.02 0.03 0.04 0.06 0.06 0.07 0.06 0.05
0.01 0.01 0.01 0.01 0.01 0.01 0.01 0.01 0.01 0.02 0.02 0.01 0.00 0.00 0.00 0.01 0.01 0.02 0.01 0.02 0.02 0.04 0.04 0.04 0.05 0.06 0.07 0.08 0.08 0.09 0.08 0.07 0.05 0.04 0.01 0.01 0.01 0.01 0.01 0.01 0.02 0.01 0.02 0.04 0.05 0.06 0.07 0.07 0.06
0.01 0.00 0.01 0.01 0.01 0.02 0.02 0.02 0.01 0.02 0.02 0.01 0.01 0.00 0.00 0.01 0.01 0.01 0.01 0.01 0.02 0.03 0.04 0.03 0.04 0.05 0.06 0.06 0.06 0.07 0.08 0.07 0.05 0.04 0.02 0.01 0.01 0.01 0.01 0.01 0.01 0.02 0.02 0.02 0.03 0.04 0.06 0.07 0.07
0.01 0.01 0.01 0.01 0.02 0.03 0.02 0.02 0.02 0.01 0.02 0.03 0.02 0.01 0.01 0.01 0.01 0.01 0.01 0.01 0.02 0.02 0.03 0.03 0.04 0.04 0.04 0.05 0.05 0.06 0.07 0.06 0.04 0.03 0.02 0.01 0.01 0.01 0.01 0.01 0.01 0.01 0.01 0.01 0.02 0.02 0.03 0.05 0.06
0.00 0.01 0.01 0.02 0.04 0.05 0.03 0.03 0.02 0.03 0.03 0.03 0.02 0.01 0.01 0.01 0.01 0.01 0.01 0.02 0.02 0.02 0.02 0.03 0.04 0.04 0.04 0.04 0.04 0.04 0.04 0.05 0.05 0.04 0.02 0.01 0.01 0.01 0.01 0.01 0.01 0.01 0.01 0.01 0.01 0.01 0.02 0.03 0.04
0.01 0.02 0.04 0.04 0.05 0.04 0.02 0.02 0.02 0.02 0.02 0.02 0.02 0.02 0.01 0.01 0.01 0.01 0.01 0.01 0.01 0.02 0.02 0.02 0.03 0.03 0.04 0.04 0.04 0.03 0.03 0.03 0.04 0.05 0.03 0.02 0.01 0.01 0.01 0.01 0.01 0.01 0.01 0.01 0.01 0.01 0.01 0.01 0.02
0.01 0.02 0.04 0.04 0.03 0.03 0.02 0.02 0.01 0.01 0.01 0.01 0.01 0.01 0.01 0.01 0.01 0.01 0.01 0.01 0.01 0.01 0.02 0.02 0.02 0.03 0.03 0.03 0.03 0.02 0.02 0.02 0.02 0.03 0.04 0.03 0.02 0.01 0.01 0.01 0.01 0.01 0.01 0.01 0.01 0.01 0.01 0.02 0.02
0.03 0.02 0.03 0.04 0.02 0.02 0.03 0.02 0.01 0.01 0.01 0.01 0.01 0.01 0.01 0.01 0.01 0.01 0.01 0.01 0.01 0.01 0.02 0.02 0.02 0.03 0.02 0.02 0.02 0.02 0.02 0.01 0.01 0.01 0.02 0.02 0.02 0.02 0.02 0.02 0.01 0.01 0.01 0.01 0.01 0.01 0.02 0.02 0.02
0.02 0.02 0.03 0.04 0.03 0.03 0.03 0.02 0.02 0.01 0.01 0.01 0.01 0.01 0.01 0.01 0.01 0.01 0.02 0.02 0.01 0.01 0.01 0.02 0.02 0.02 0.02 0.02 0.02 0.02 0.02 0.01 0.01 0.01 0.01 0.02 0.02 0.03 0.03 0.03 0.02 0.02 0.02 0.01 0.01 0.01 0.01 0.02 0.02
0.01 0.01 0.02 0.04 0.03 0.03 0.03 0.03 0.02 0.02 0.02 0.01 0.01 0.01 0.01 0.01 0.01 0.02 0.02 0.02 0.01 0.02 0.02 0.01 0.02 0.02 0.01 0.01 0.03 0.03 0.02 0.01 0.01 0.01 0.01 0.01 0.02 0.03 0.04 0.04 0.03 0.03 0.03 0.02 0.01 0.01 0.01 0.01 0.02
0.01 0.01 0.02 0.03 0.02 0.02 0.02 0.02 0.02 0.01 0.01 0.01 0.01 0.01 0.01 0.01 0.01 0.02 0.02 0.02 0.02 0.02 0.02 0.01 0.01 0.01 0.01 0.01 0.01 0.03 0.04 0.02 0.01 0.01 0.01 0.01 0.02 0.02 0.02 0.03 0.03 0.03 0.03 0.02 0.01 0.01 0.01 0.01 0.01
MSLP
1013.99 1014.77 1015.58 1016.26 1016.70 1016.79 1016.52 1015.93 1015.12 1014.23 1013.43 1012.81 1012.47 1012.39 1012.54 1012.81 1013.09 1013.30 1013.37 1013.29 1013.11 1012.87 1012.67 1012.55 1012.56 1012.68 1012.90 1013.15 1013.40 1013.61 1013.78 1013.93 1014.07 1014.26 1014.51 1014.81 1015.17 1015.54 1015.89 1016.19 1016.41 1016.55 1016.63 1016.67 1016.71 1016.76 1016.86 1016.99 1017.15
1014.39 1015.26 1016.05 1016.63 1016.88 1016.73 1016.19 1015.35 1014.34 1013.34 1012.49 1011.90 1011.63 1011.67 1011.92 1012.28 1012.64 1012.89 1012.99 1012.95 1012.80 1012.62 1012.49 1012.46 1012.57 1012.79 1013.08 1013.40 1013.70 1013.94 1014.13 1014.28 1014.42 1014.60 1014.82 1015.11 1015.44 1015.79 1016.12 1016.40 1016.61 1016.75 1016.84 1016.90 1016.95 1017.01 1017.10 1017.22 1017.37
1014.82 1015.70 1016.43 1016.85 1016.88 1016.48 1015.71 1014.67 1013.54 1012.48 1011.66 1011.15 1011.00 1011.15 1011.51 1011.95 1012.35 1012.63 1012.75 1012.72 1012.60 1012.48 1012.42 1012.47 1012.67 1012.97 1013.35 1013.72 1014.07 1014.34 1014.54 1014.69 1014.83 1014.99 1015.19 1015.45 1015.74 1016.04 1016.33 1016.58 1016.77 1016.91 1017.01 1017.09 1017.16 1017.24 1017.34 1017.46 1017.59
1015.21 1016.03 1016.62 1016.85 1016.66 1016.04 1015.08 1013.92 1012.74 1011.71 1010.97 1010.60 1010.58 1010.86 1011.31 1011.81 1012.25 1012.53 1012.65 1012.64 1012.55 1012.48 1012.49 1012.63 1012.90 1013.28 1013.71 1014.12 1014.49 1014.78 1014.98 1015.14 1015.27 1015.42 1015.60 1015.82 1016.07 1016.33 1016.57 1016.78 1016.94 1017.07 1017.17 1017.27 1017.37 1017.47 1017.59 1017.71 1017.84
1015.50 1016.20 1016.60 1016.62 1016.21 1015.41 1014.32 1013.12 1011.96 1011.03 1010.43 1010.22 1010.35 1010.75 1011.28 1011.83 1012.28 1012.56 1012.69 1012.69 1012.65 1012.64 1012.73 1012.94 1013.28 1013.71 1014.16 1014.59 1014.95 1015.23 1015.43 1015.59 1015.72 1015.86 1016.03 1016.23 1016.45 1016.67 1016.86 1017.03 1017.16 1017.27 1017.37 1017.48 1017.60 1017.73 1017.86 1017.99 1018.10
1015.65 1016.16 1016.35 1016.15 1015.55 1014.61 1013.47 1012.28 1011.22 1010.43 1010.01 1009.97 1010.24 1010.75 1011.34 1011.91 1012.36 1012.65 1012.79 1012.84 1012.86 1012.93 1013.10 1013.39 1013.79 1014.24 1014.70 1015.11 1015.44 1015.70 1015.87 1016.02 1016.15 1016.30 1016.48 1016.68 1016.88 1017.07 1017.24 1017.36 1017.46 1017.55 1017.64 1017.74 1017.87 1018.01 1018.15 1018.27 1018.38
1015.62 1015.92 1015.89 1015.49 1014.73 1013.71 1012.57 1011.45 1010.53 1009.92 1009.68 1009.79 1010.19 1010.76 1011.39 1011.97 1012.42 1012.72 1012.90 1013.01 1013.12 1013.29 1013.56 1013.93 1014.38 1014.84 1015.28 1015.65 1015.94 1016.14 1016.29 1016.42 1016.56 1016.73 1016.93 1017.15 1017.36 1017.54 1017.68 1017.78 1017.84 1017.90 1017.96 1018.05 1018.17 1018.31 1018.44 1018.55 1018.64
1015.43 1015.52 1015.28 1014.71 1013.84 1012.79 1011.69 1010.69 1009.92 1009.48 1009.40 1009.64 1010.11 1010.73 1011.36 1011.93 1012.37 1012.69 1012.92 1013.12 1013.35 1013.64 1014.03 1014.49 1014.98 1015.46 1015.87 1016.19 1016.42 1016.57 1016.69 1016.80 1016.95 1017.15 1017.38 1017.62 1017.85 1018.04 1018.18 1018.25 1018.29 1018.31 1018.34 1018.40 1018.49 1018.60 1018.72 1018.81 1018.86
1015.10 1015.00 1014.59 1013.90 1012.98 1011.94 1010.92 1010.05 1009.42 1009.13 1009.16 1009.48 1009.99 1010.60 1011.21 1011.75 1012.19 1012.53 1012.83 1013.14 1013.49 1013.92 1014.43 1014.99 1015.54 1016.03 1016.42 1016.71 1016.88 1016.99 1017.07 1017.17 1017.32 1017.54 1017.80 1018.08 1018.34 1018.54 1018.68 1018.74 1018.75 1018.74 1018.74 1018.76 1018.81 1018.89 1018.97 1019.03 1019.05
1014.67 1014.43 1013.91 1013.15 1012.22 1011.23 1010.31 1009.55 1009.06 1008.87 1008.97 1009.31 1009.81 1010.38 1010.94 1011.44 1011.87 1012.24 1012.62 1013.03 1013.52 1014.09 1014.72 1015.38 1015.99 1016.51 1016.90 1017.16 1017.30 1017.38 1017.43 1017.53 1017.68 1017.92 1018.20 1018.51 1018.79 1019.01 1019.15 1019.20 1019.20 1019.16 1019.12 1019.11 1019.12 1019.15 1019.19 1019.22 1019.21
1014.20 1013.86 1013.28 1012.51 1011.62 1010.70 1009.87 1009.23 1008.82 1008.69 1008.82 1009.14 1009.59 1010.09 1010.58 1011.03 1011.45 1011.86 1012.30 1012.82 1013.42 1014.12 1014.87 1015.61 1016.30 1016.86 1017.27 1017.54 1017.68 1017.75 1017.80 1017.88 1018.04 1018.28 1018.57 1018.89 1019.17 1019.40 1019.55 1019.60 1019.59 1019.54 1019.48 1019.43 1019.40 1019.40 1019.40 1019.39 1019.35
1013.72 1013.34 1012.75 1012.01 1011.18 1010.35 1009.62 1009.05 1008.70 1008.60 1008.70 1008.97 1009.34 1009.76 1010.19 1010.60 1011.00 1011.44 1011.94 1012.53 1013.23 1014.02 1014.86 1015.68 1016.43 1017.05 1017.51 1017.82 1017.99 1018.08 1018.15 1018.25 1018.40 1018.63 1018.91 1019.21 1019.49 1019.72 1019.87 1019.93 1019.92 1019.87 1019.80 1019.73 1019.68 1019.64 1019.60 1019.55 1019.48
1013.28 1012.89 1012.33 1011.64 1010.89 1010.15 1009.49 1008.99 1008.66 1008.54 1008.60 1008.80 1009.09 1009.44 1009.80 1010.19 1010.59 1011.04 1011.58 1012.23 1012.98 1013.82 1014.71 1015.59 1016.40 1017.08 1017.61 1017.99 1018.23 1018.38 1018.49 1018.61 1018.77 1018.98 1019.23 1019.50 1019.75 1019.96 1020.10 1020.17 1020.18 1020.15 1020.09 1020.02 1019.95 1019.88 1019.81 1019.73 1019.63
1012.89 1012.52 1012.00 1011.39 1010.71 1010.05 1009.45 1008.97 1008.64 1008.49 1008.49 1008.62 1008.85 1009.14 1009.48 1009.84 1010.25 1010.73 1011.28 1011.94 1012.71 1013.56 1014.46 1015.36 1016.21 1016.95 1017.57 1018.04 1018.39 1018.63 1018.81 1018.96 1019.13 1019.31 1019.52 1019.74 1019.95 1020.13 1020.27 1020.36 1020.39 1020.39 1020.35 1020.30 1020.23 1020.15 1020.05 1019.94 1019.80
1012.58 1012.22 1011.75 1011.20 1010.59 1009.99 1009.43 1008.96 1008.61 1008.41 1008.35 1008.43 1008.61 1008.88 1009.22 1009.60 1010.03 1010.52 1011.08 1011.73 1012.46 1013.27 1014.14 1015.03 1015.90 1016.70 1017.41 1017.99 1018.46 1018.82 1019.09 1019.30 1019.48 1019.64 1019.81 1019.97 1020.13 1020.27 1020.40 1020.50 1020.56 1020.60 1020.60 1020.58 1020.52 1020.43 1020.31 1020.16 1019.99
1012.32 1011.98 1011.55 1011.05 1010.50 1009.93 1009.39 1008.91 1008.53 1008.28 1008.18 1008.22 1008.39 1008.67 1009.03 1009.45 1009.92 1010.43 1010.99 1011.60 1012.27 1013.02 1013.82 1014.67 1015.53 1016.37 1017.16 1017.86 1018.46 1018.94 1019.32 1019.60 1019.80 1019.95 1020.07 1020.18 1020.29 1020.40 1020.51 1020.62 1020.72 1020.80 1020.84 1020.85 1020.81 1020.72 1020.58 1020.40 1020.19
1012.10 1011.76 1011.36 1010.90 1010.39 1009.85 1009.32 1008.82 1008.41 1008.12 1007.98 1008.01 1008.19 1008.50 1008.92 1009.40 1009.92 1010.46 1011.00 1011.57 1012.17 1012.83 1013.54 1014.32 1015.15 1016.01 1016.87 1017.67 1018.39 1019.01 1019.49 1019.84 1020.08 1020.23 1020.32 1020.38 1020.44 1020.52 1020.62 1020.74 1020.87 1020.99 1021.07 1021.11 1021.09 1021.00 1020.84 1020.63 1020.38
1011.88 1011.54 1011.17 1010.75 1010.27 1009.75 1009.21 1008.70 1008.26 1007.95 1007.79 1007.82 1008.02 1008.39 1008.88 1009.43 1010.01 1010.58 1011.13 1011.65 1012.17 1012.73 1013.34 1014.03 1014.82 1015.67 1016.57 1017.45 1018.28 1019.01 1019.59 1020.02 1020.30 1020.46 1020.54 1020.57 1020.60 1020.65 1020.74 1020.86 1021.01 1021.16 1021.28 1021.35 1021.34 1021.26 1021.09 1020.85 1020.58
1011.61 1011.29 1010.94 1010.55 1010.11 1009.62 1009.09 1008.58 1008.12 1007.79 1007.63 1007.67 1007.92 1008.35 1008.91 1009.54 1010.19 1010.80 1011.35 1011.83 1012.28 1012.74 1013.25 1013.85 1014.57 1015.39 1016.30 1017.23 1018.14 1018.95 1019.62 1020.12 1020.45 1020.63 1020.71 1020.73 1020.74 1020.78 1020.86 1020.99 1021.16 1021.33 1021.47 1021.56 1021.57 1021.48 1021.31 1021.07 1020.78
1011.27 1010.95 1010.64 1010.30 1009.91 1009.46 1008.96 1008.46 1008.02 1007.69 1007.55 1007.61 1007.90 1008.39 1009.02 1009.73 1010.44 1011.09 1011.64 1012.10 1012.49 1012.87 1013.28 1013.79 1014.42 1015.20 1016.08 1017.03 1017.97 1018.84 1019.57 1020.13 1020.51 1020.73 1020.83 1020.86 1020.87 1020.91 1020.99 1021.13 1021.30 1021.48 1021.64 1021.74 1021.76 1021.69 1021.53 1021.29 1021.00
1010.81 1010.51 1010.24 1009.96 1009.63 1009.25 1008.81 1008.37 1007.96 1007.67 1007.56 1007.67 1008.00 1008.54 1009.23 1010.00 1010.76 1011.44 1012.01 1012.45 1012.80 1013.10 1013.43 1013.85 1014.40 1015.11 1015.94 1016.86 1017.80 1018.68 1019.45 1020.05 1020.48 1020.75 1020.89 1020.95 1020.98 1021.03 1021.13 1021.27 1021.44 1021.63 1021.79 1021.90 1021.93 1021.88 1021.74 1021.53 1021.27
1010.24 1009.96 1009.74 1009.52 1009.28 1008.99 1008.65 1008.29 1007.96 1007.74 1007.69 1007.85 1008.23 1008.82 1009.55 1010.36 1011.15 1011.86 1012.43 1012.86 1013.18 1013.43 1013.69 1014.02 1014.49 1015.11 1015.87 1016.73 1017.63 1018.49 1019.27 1019.90 1020.37 1020.68 1020.87 1020.99 1021.06 1021.15 1021.26 1021.41 1021.58 1021.76 1021.92 1022.04 1022.08 1022.06 1021.96 1021.80 1021.59
1009.63 1009.35 1009.16 1009.01 1008.87 1008.69 1008.47 1008.23 1008.02 1007.91 1007.94 1008.17 1008.61 1009.23 1009.99 1010.82 1011.62 1012.33 1012.90 1013.32 1013.61 1013.82 1014.03 1014.29 1014.66 1015.19 1015.85 1016.63 1017.46 1018.28 1019.03 1019.67 1020.18 1020.54 1020.79 1020.97 1021.10 1021.23 1021.37 1021.54 1021.71 1021.89 1022.05 1022.17 1022.23 1022.24 1022.19 1022.09 1021.95
1009.04 1008.74 1008.57 1008.49 1008.44 1008.39 1008.32 1008.23 1008.17 1008.19 1008.34 1008.66 1009.15 1009.81 1010.58 1011.39 1012.19 1012.88 1013.43 1013.83 1014.09 1014.27 1014.42 1014.62 1014.91 1015.33 1015.89 1016.57 1017.31 1018.06 1018.77 1019.40 1019.92 1020.33 1020.65 1020.89 1021.09 1021.27 1021.45 1021.63 1021.82 1022.00 1022.16 1022.28 1022.37 1022.41 1022.41 1022.38 1022.32
1008.62 1008.27 1008.10 1008.07 1008.11 1008.18 1008.26 1008.35 1008.46 1008.63 1008.91 1009.32 1009.88 1010.55 1011.32 1012.11 1012.86 1013.51 1014.03 1014.39 1014.62 1014.76 1014.86 1014.99 1015.21 1015.53 1015.98 1016.54 1017.17 1017.84 1018.49 1019.09 1019.62 1020.07 1020.44 1020.74 1021.01 1021.25 1021.47 1021.68 1021.88 1022.06 1022.23 1022.36 1022.47 1022.56 1022.62 1022.65 1022.66
1008.50 1008.09 1007.90 1007.89 1008.00 1008.19 1008.41 1008.67 1008.95 1009.29 1009.70 1010.21 1010.81 1011.50 1012.24 1012.98 1013.66 1014.24 1014.70 1015.01 1015.19 1015.29 1015.35 1015.42 1015.55 1015.78 1016.12 1016.56 1017.07 1017.64 1018.21 1018.77 1019.28 1019.75 1020.15 1020.52 1020.84 1021.13 1021.40 1021.64 1021.86 1022.06 1022.23 1022.39 1022.52 1022.65 1022.76 1022.86 1022.94
1008.80 1008.33 1008.11 1008.11 1008.26 1008.54 1008.89 1009.29 1009.73 1010.21 1010.74 1011.33 1011.97 1012.65 1013.34 1014.00 1014.59 1015.08 1015.45 1015.69 1015.82 1015.86 1015.87 1015.88 1015.95 1016.08 1016.31 1016.63 1017.02 1017.47 1017.95 1018.44 1018.92 1019.38 1019.81 1020.21 1020.58 1020.91 1021.22 1021.49 1021.73 1021.95 1022.14 1022.32 1022.49 1022.65 1022.81 1022.96 1023.10
1009.62 1009.10 1008.85 1008.84 1009.03 1009.36 1009.80 1010.31 1010.86 1011.45 1012.07 1012.70 1013.35 1013.99 1014.60 1015.17 1015.65 1016.02 1016.29 1016.44 1016.50 1016.49 1016.44 1016.40 1016.39 1016.44 1016.56 1016.76 1017.03 1017.36 1017.74 1018.14 1018.56 1018.99 1019.41 1019.83 1020.22 1020.58 1020.92 1021.22 1021.48 1021.72 1021.94 1022.14 1022.34 1022.54 1022.75 1022.95 1023.13
1010.98 1010.44 1010.18 1010.16 1010.35 1010.71 1011.19 1011.76 1012.38 1013.02 1013.67 1014.30 1014.92 1015.49 1016.00 1016.44 1016.79 1017.04 1017.19 1017.25 1017.23 1017.17 1017.07 1016.97 1016.90 1016.87 1016.89 1016.97 1017.12 1017.32 1017.58 1017.88 1018.23 1018.60 1018.99 1019.39 1019.78 1020.15 1020.50 1020.82 1021.11 1021.37 1021.61 1021.84 1022.07 1022.31 1022.55 1022.79 1023.01
1012.79 1012.29 1012.04 1012.02 1012.20 1012.55 1013.03 1013.59 1014.21 1014.84 1015.46 1016.05 1016.59 1017.05 1017.44 1017.75 1017.96 1018.08 1018.12 1018.09 1018.00 1017.87 1017.73 1017.58 1017.45 1017.34 1017.28 1017.25 1017.28 1017.36 1017.50 1017.69 1017.94 1018.24 1018.57 1018.93 1019.30 1019.66 1020.01 1020.33 1020.63 1020.91 1021.17 1021.43 1021.69 1021.96 1022.23 1022.49 1022.74
Thickness
5696 5698 5697 5688 5671 5657 5662 5676 5690 5697 5702 5711 5715 5714 5709 5707 5705 5703 5715 5721 5721 5720 5719 5718 5717 5717 5716 5716 5715 5714 5714 5713 5713 5712 5712 5712 5711 5711 5710 5710 5709 5709 5709 5709 5709 5709 5709 5709 5710
5691 5692 5685 5672 5656 5648 5660 5677 5685 5695 5704 5710 5711 5709 5705 5704 5710 5711 5713 5717 5717 5716 5715 5714 5714 5713 5712 5712 5711 5711 5710 5709 5709 5708 5708 5708 5707 5706 5706 5705 5705 5704 5704 5704 5704 5704 5704 5704 5705
5686 5684 5670 5657 5650 5653 5667 5681 5686 5696 5703 5704 5701 5702 5701 5701 5706 5709 5713 5714 5713 5712 5711 5710 5710 5709 5708 5707 5707 5707 5706 5705 5704 5704 5704 5703 5702 5702 5701 5701 5700 5700 5699 5699 5699 5699 5699 5699 5699
5676 5668 5659 5649 5652 5664 5673 5681 5686 5690 5696 5700 5696 5692 5696 5703 5706 5708 5711 5710 5709 5707 5706 5705 5705 5704 5704 5703 5702 5702 5701 5700 5700 5699 5698 5698 5697 5696 5696 5695 5695 5695 5694 5694 5694 5693 5694 5694 5694
5664 5653 5644 5640 5652 5664 5672 5678 5681 5682 5686 5690 5689 5684 5688 5697 5704 5705 5705 5705 5704 5702 5701 5700 5700 5699 5699 5698 5697 5697 5696 5695 5695 5694 5693 5692 5692 5691 5690 5690 5690 5689 5689 5689 5689 5688 5688 5689 5689
5647 5641 5631 5634 5649 5661 5668 5673 5675 5674 5676 5680 5680 5677 5681 5690 5695 5697 5698 5698 5698 5697 5696 5695 5695 5694 5693 5693 5692 5691 5690 5690 5689 5688 5688 5687 5686 5685 5685 5684 5684 5684 5683 5684 5683 5683 5683 5683 5683
5637 5630 5629 5635 5642 5652 5663 5667 5665 5665 5668 5672 5675 5669 5673 5681 5687 5691 5691 5691 5690 5690 5690 5689 5689 5688 5688 5687 5686 5685 5685 5684 5683 5682 5682 5681 5680 5680 5679 5678 5678 5677 5677 5678 5678 5677 5677 5677 5677
5634 5626 5627 5630 5638 5647 5657 5661 5662 5661 5663 5670 5671 5664 5665 5674 5680 5682 5683 5682 5682 5682 5683 5683 5683 5683 5682 5681 5680 5679 5678 5678 5677 5676 5675 5675 5674 5673 5673 5672 5671 5671 5671 5671 5672 5672 5671 5671 5671
5630 5615 5618 5629 5635 5642 5650 5650 5654 5658 5658 5661 5664 5666 5670 5673 5674 5673 5672 5672 5673 5674 5675 5676 5677 5676 5676 5675 5674 5673 5672 5671 5671 5669 5669 5668 5667 5666 5666 5666 5665 5665 5665 5666 5666 5666 5666 5666 5665
5615 5607 5621 5632 5635 5636 5640 5641 5643 5646 5647 5649 5653 5658 5663 5664 5665 5664 5664 5665 5666 5667 5668 5669 5670 5670 5669 5668 5667 5667 5666 5665 5664 5663 5662 5661 5661 5660 5659 5659 5659 5659 5659 5659 5659 5659 5659 5659 5658
5609 5608 5618 5624 5627 5629 5629 5632 5636 5636 5636 5640 5643 5647 5651 5653 5655 5656 5657 5659 5661 5661 5662 5662 5663 5663 5663 5662 5661 5660 5659 5658 5657 5656 5656 5655 5654 5653 5653 5653 5652 5652 5652 5652 5652 5653 5652 5652 5652
5601 5606 5611 5615 5620 5620 5619 5621 5623 5627 5634 5639 5640 5642 5642 5644 5646 5648 5650 5651 5653 5654 5655 5655 5656 5656 5656 5656 5655 5654 5653 5652 5651 5650 5649 5649 5647 5647 5646 5646 5645 5646 5646 5646 5646 5646 5646 5646 5646
5592 5597 5602 5605 5608 5610 5611 5611 5613 5620 5628 5630 5632 5633 5634 5635 5637 5641 5643 5645 5646 5647 5649 5649 5650 5650 5649 5649 5649 5648 5647 5646 5645 5644 5643 5643 5642 5640 5639 5639 5639 5639 5640 5640 5640 5640 5639 5639 5639
5584 5586 5589 5593 5596 5600 5601 5604 5605 5614 5619 5620 5621 5622 5625 5627 5629 5631 5633 5636 5638 5640 5642 5642 5642 5643 5643 5642 5642 5642 5641 5640 5639 5638 5637 5636 5636 5634 5633 5633 5633 5633 5633 5634 5634 5634 5633 5633 5633
5575 5573 5576 5582 5586 5589 5591 5593 5599 5607 5608 5610 5612 5614 5617 5619 5622 5624 5626 5628 5631 5632 5634 5635 5636 5636 5636 5635 5635 5635 5634 5634 5633 5631 5630 5630 5629 5628 5627 5626 5626 5627 5627 5627 5627 5627 5626 5626 5626
5561 5557 5557 5571 5576 5579 5576 5581 5594 5596 5597 5598 5601 5604 5607 5610 5613 5617 5619 5621 5623 5624 5625 5627 5628 5628 5628 5628 5627 5627 5627 5626 5626 5625 5624 5623 5622 5621 5620 5619 5619 5620 5620 5620 5620 5620 5618 5618 5618
5542 5539 5545 5557 5566 5566 5564 5570 5583 5585 5586 5588 5590 5593 5596 5600 5604 5607 5611 5612 5615 5616 5617 5617 5619 5619 5620 5619 5619 5618 5618 5618 5618 5617 5617 5616 5615 5614 5613 5613 5612 5612 5613 5613 5613 5612 5612 5611 5610
5530 5532 5538 5543 5553 5554 5553 5560 5571 5574 5575 5577 5579 5582 5585 5590 5595 5599 5602 5604 5606 5607 5608 5608 5610 5610 5611 5610 5609 5608 5608 5608 5609 5609 5609 5608 5607 5607 5606 5605 5605 5605 5605 5606 5606 5605 5604 5604 5603
5530 5528 5529 5537 5543 5543 5544 5552 5561 5563 5564 5566 5569 5572 5576 5581 5587 5590 5592 5594 5595 5597 5597 5598 5600 5601 5601 5601 5600 5599 5598 5599 5599 5600 5600 5600 5599 5599 5598 5598 5598 5598 5597 5598 5598 5597 5596 5595 5595
5523 5519 5520 5528 5533 5533 5533 5541 5552 5554 5557 5559 5562 5564 5568 5571 5575 5579 5580 5583 5585 5586 5588 5589 5590 5592 5593 5593 5594 5593 5591 5590 5590 5591 5591 5591 5591 5590 5590 5590 5590 5590 5589 5589 5589 5590 5588 5587 5587
5515 5512 5512 5515 5521 5522 5520 5528 5540 5547 5550 5553 5555 5557 5560 5564 5566 5568 5569 5571 5573 5575 5578 5580 5581 5582 5583 5584 5583 5582 5579 5578 5578 5579 5580 5581 5581 5582 5582 5582 5582 5582 5582 5581 5582 5582 5581 5579 5578
5505 5511 5510 5509 5502 5497 5506 5504 5528 5536 5538 5543 5545 5547 5550 5554 5556 5558 5559 5561 5563 5566 5568 5569 5571 5572 5572 5573 5573 5573 5572 5570 5570 5571 5570 5571 5572 5572 5573 5574 5574 5574 5574 5574 5574 5574 5573 5573 5570
5499 5504 5502 5499 5491 5487 5492 5489 5513 5524 5527 5534 5536 5538 5541 5544 5547 5549 5550 5552 5554 5556 5557 5559 5560 5561 5562 5563 5563 5563 5562 5561 5560 5560 5560 5560 5561 5562 5564 5564 5565 5565 5565 5566 5565 5565 5565 5565 5564
5493 5491 5487 5479 5476 5478 5489 5486 5501 5511 5523 5528 5531 5531 5532 5533 5536 5539 5541 5543 5544 5545 5546 5548 5549 5550 5551 5552 5552 5552 5552 5551 5550 5550 5549 5549 5550 5552 5554 5555 5556 5557 5557 5558 5558 5558 5557 5557 5556
5482 5470 5461 5461 5460 5474 5487 5486 5498 5514 5519 5521 5523 5523 5522 5523 5524 5527 5530 5531 5533 5534 5535 5537 5539 5539 5540 5541 5542 5542 5542 5541 5541 5541 5541 5540 5541 5542 5544 5546 5548 5548 5549 5550 5550 5550 5549 5549 5548
5471 5470 5458 5455 5458 5469 5479 5480 5498 5509 5512 5514 5514 5514 5514 5514 5515 5517 5519 5520 5522 5524 5526 5527 5529 5530 5531 5531 5532 5532 5532 5531 5532 5532 5532 5532 5533 5534 5536 5538 5539 5540 5541 5541 5541 5541 5541 5540 5540
5465 5462 5464 5451 5448 5455 5467 5475 5492 5502 5503 5503 5504 5504 5505 5505 5507 5508 5510 5511 5513 5515 5516 5518 5519 5521 5521 5522 5522 5522 5522 5522 5523 5523 5523 5524 5525 5526 5528 5529 5530 5532 5532 5533 5532 5532 5532 5531 5531
5465 5459 5447 5446 5448 5455 5465 5469 5478 5489 5491 5492 5493 5493 5494 5497 5498 5499 5500 5502 5503 5505 5507 5508 5510 5511 5512 5513 5513 5514 5513 5513 5514 5514 5515 5515 5517 5518 5520 5520 5521 5522 5523 5524 5523 5523 5523 5523 5522
5452 5449 5444 5437 5438 5445 5449 5469 5485 5484 5484 5481 5481 5483 5484 5485 5486 5488 5490 5492 5494 5495 5496 5498 5500 5502 5502 5503 5504 5504 5504 5504 5505 5506 5507 5508 5509 5511 5512 5513 5513 5514 5514 5515 5514 5514 5514 5513 5512
5447 5445 5437 5433 5430 5428 5434 5459 5480 5477 5475 5474 5473 5475 5476 5476 5477 5479 5481 5483 5484 5485 5487 5489 5491 5492 5494 5494 5495 5495 5496 5496 5496 5497 5499 5500 5502 5503 5504 5504 5504 5505 5506 5505 5505 5505 5505 5504 5503